FENGYUN 1C DEB, 31987

Orbit data source: Space-Track

FENGYUN 1C DEB, 31987 is space debris in SSO originally from a launch on Mon, 10 May 1999 UTC launched from the Taiyaun Space Center, China (TSC). Fengyun 1C debris stems from the Chinese weather satellite Fengyun-1C, which was intentionally destroyed by a Chinese anti-satellite missile in 2007. This event dramatically increased the amount of space debris, with thousands of trackable fragments posing hazards to satellites and human spaceflight. The Fengyun 1C debris cloud has become a focal point in discussions about space sustainability and the need for international regulations to prevent the creation of new debris.

Loading next visibility...
Identifier
31987, 1999-025CPQ
Orbit
SSO
Country
Flag of CNCN / PRC
Related business
Manufacturer
Unknown
Mission
Spacecraft
Bus & Motor
Unknown
Mass
Unknown
Launch date (UTC)
1999-05-10 (27 years ago)
Launch vehicle
Unknown
Launch site
Taiyaun Space Center, China (TSC)
Object type
Payload
Rocket body
Debris
Shape & HBR
Unknown shape, 0.1 m
Radar Cross Section
Medium (>0.1 m² and <1 m²)

Expand to show TLE details & history
Last TLE update: 23 hours ago

TLE from 23 hours ago
0 FENGYUN 1C DEB
1 31987U 99025CPQ 26253.23770059  .00001897  00000-0  53047-3 0  9991
2 31987  99.0577 249.8922 0051853  71.1834 353.1566 14.46651957  2873
Epoch: 2026-09-10T05:42Z
TLE epoch observation values (Epoch: 2026-09-10T05:42:17.330Z)
Latitude
62.91842°
Longitude
156.9765°
Altitude
710.739 km
Speed
7.526 km/s
True Right ascension
15h 27m 18s
True Declination
62° 46' 40"
Sunlit
Object was in daylight at epoch
Visualization orbit readout
Latitude
Unknown
Longitude
Unknown
Altitude
Unknown
Speed
Unknown
Apparent Right ascension
Unknown
Apparent Declination
Unknown
Sunlit
N/A
Visualization observer readout
Local Sidereal Time
20:57:54
Azimuth
Unknown
Elevation
Unknown
Doppler factor
Unknown
Orbital elements
Apogee altitude
770.622 km
Perigee altitude
696.868 km
Semi-major axis
7,111.882 km
Eccentricity
0.00519
Inclination
99.0577°
RAAN
249.8922°
Arg. of periapsis
71.1834°
True anomaly
353.08534°
Mean anomaly
353.1566°
Eccentric anomaly
353.12102°
Mean motion
3.61881 °/min
Orbital period
99.48 mins
BSTAR
0.00053047
Loading maneuver chart data...
Computing Atmospheric mass density...

Documentation

Showing up to 5 results
|